Location: Dötzum
(52.0808°N, 9.8063°E)
Time: 05:23:46
(UTC+00:00)

Cosmos 1943 Rocket - Pass Details

Date: 27 May 2022
Orbit: 810 x 845 km, 71.0° (Epoch: 24 June)

Event Time Altitude Azimuth Distance (km) Brightness Sun altitude
Rises 01:05:14 0° 327° (NNW) 3,414 5.8 -13.0°
Reaches altitude 10° 01:07:43 10° 324° (NW) 2,477 5.0 -12.8°
Maximum altitude 01:13:17 58° 247° (WSW) 982 2.3 -12.4°
Drops below altitude 10° 01:18:49 10° 169° (S) 2,459 4.2 -12.0°
Enters shadow 01:19:26 - 168° (SSE) 2,690 4.4 -12.0°
